[Iaude] MPEC J204: 2017 BN235 [a=44.28,e=0.06,i=3.1,H=8.78]
    mpec at cfa.harvard.edu 
    mpec at cfa.harvard.edu
       
    Wed May  8 16:24:46 EDT 2024
    
    
  
M.P.E.C. 2024-J204                                  Issued 2024 May 8, 20:22 UT
     The Minor Planet Electronic Circulars contain information on unusual
         minor planets, routine data on comets and natural satellites,
         and occasional editorial announcements.  They are published
    on behalf of Division F of the International Astronomical Union by the
          Minor Planet Center, Smithsonian Astrophysical Observatory,
                          Cambridge, MA 02138, U.S.A.
			  
             Prepared using the Tamkin Foundation Computer Network
                              MPC at CFA.HARVARD.EDU
            URL https://www.minorplanetcenter.net/    ISSN 1523-6714
                                   2017 BN235                                   
Additional Observations:
     K17BN5N 1C2016 04 02.39340712 25 51.11 -00 29 12.2                WEJ204T09
     K17BN5N 1C2016 04 02.51789412 25 50.59 -00 29 08.9                WEJ204T09
     K17BN5N 1C2016 06 05.31148812 22 42.59 -00 10 17.4                WEJ204T09
     K17BN5N 1C2016 06 05.35186612 22 42.54 -00 10 17.2                WEJ204T09
Observer details:
T09 Subaru Telescope, Maunakea.  Observer .  Measurer S. Deen.  8.3-m Subaru
    Telescope + CCD.
Orbital elements:
2017 BN235                                                                      
Epoch 2024 Mar. 31.0 TT = JDT 2460400.5                 Alexandersen            
M 123.61377              (2000.0)            P               Q                  
n   0.00334476     Peri.  282.16779     +0.40203104     -0.91508173             
a  44.2818973      Node   144.07501     +0.85960394     +0.36533439             
e   0.0615593      Incl.    3.08412     +0.31536028     +0.17075192             
P 295              H    8.78          G   0.15           U   8                  
Residuals in seconds of arc
160402 T09  0.0   0.0     170128 T09  0.1+  0.1-    170202 T09  0.0   0.0
160402 T09  0.0   0.1-    170128 T09  0.0   0.1-    170202 T09  0.1-  0.1+
160605 T09  0.1+  0.0     170202 T09  0.1-  0.1-    170223 T09  0.0   0.0
160605 T09  0.0   0.0     170202 T09  0.0   0.1-    170223 T09  0.1+  0.0
170128 T09  0.1-  0.1+    170202 T09  0.0   0.0     170223 T09  0.1-  0.0
170128 T09  0.0   0.0     170202 T09  0.1+  0.2+
170128 T09  0.1-  0.0     170202 T09  0.1+  0.0
Ephemeris:
2017 BN235               a,e,i = 44.28, 0.06, 3                  q = 41.5559
Date    TT    R. A. (2000) Decl.     Delta      r    Elong.  Phase     V
2024 04 08    13 00 32.8 -03 47 23  44.9033 45.9024   176.2     0.1    25.4
...
2024 04 23    12 59 31.7 -03 41 04  44.9472 45.9043   162.0     0.4    25.4
...
2024 05 01    12 59 01.0 -03 38 00  44.9968 45.9053   154.1     0.5    25.5
...
2024 05 07    12 58 39.5 -03 35 54  45.0453 45.9060   148.2     0.7    25.5
2024 05 08    12 58 36.1 -03 35 34  45.0542 45.9061   147.2     0.7    25.5
2024 05 09    12 58 32.7 -03 35 14  45.0634 45.9063   146.3     0.7    25.5
...
2024 05 15    12 58 13.3 -03 33 23  45.1238 45.9070   140.4     0.8    25.5
...
2024 05 23    12 57 50.5 -03 31 17  45.2167 45.9080   132.6     0.9    25.5
...
2024 06 07    12 57 18.3 -03 28 32  45.4232 45.9099   118.1     1.1    25.5
M. P. C. Staff               (C) Copyright 2024 MPC           M.P.E.C. 2024-J204
    
    
More information about the Iaude
mailing list